Briefing drone pour Villars-les-dombes

Rechercher une autre localisation

Conditions de vol :


Nous sommes le : Jeudi 02 avril 2020
Il est 21:17 UTC (23:17 LT)

Lever de soleil : 04:50 UTC (06:50 LT)
Coucher de soleil : 18:36 UTC (20:36 LT)

Météo

L'essentiel des conditions de vol

VIGILANCE MÉTÉO FRANCE - Ain (01)
Pas de vigilances particulieres
METAR de LFLL
LFLL 022100Z AUTO 34005KT CAVOK 09/M01 Q1013 NOSIG

Date d'émission: 02/04/2020
Heure d'émission: 21:00 UTC
Vent: 340° pour 5 KT (9 km/h)
Visibilité horizontale: > 10 km
Plafond : Plafond et visibilité OK (CAVOK)
Température: 9 °C
Point de rosée: -1 °C
Humidité: 50%
Pression (QNH): 1013 hPa
Conditions: Pas de changement dans les 2 heures (NOSIG)
TAF de LFLL
LFLL 021700Z 0218/0324 36005KT CAVOK BECMG 0308/0310 36012KT

Conditions prévues :

Heure d'émission : Bulletin éffectué le 02 à 18:00 UTC
Prévision : Valide du 02 a 18:00 UTC au 03 a 23:59 UTC
Vent : 360° pour 5 KT (9 km/h)
Visibilité : > 10 km

Devenant :

Prévision : Valide du 03 a 08:00 UTC au 03 a 10:00 UTC
Vent : 360° pour 12 KT (22 km/h)
WEBCAM POUR VILLARS-LES-DOMBES

Réglementation

Voler en sécurité

CARTES AERONAUTIQUE 1/500.000
CARTES VAC (LFLL)
SUP AIP




Chargement des AIP...
NOTAM (VILLARS-LES-DOMBES + Terrain à proximité / FIR )




Chargement des NOTAMS...
CONTACT PREFECTURE 01


Avertissement : Les données mises à disposition sont indicatives. Oxygène Drone ne pourra être tenu responsable de dégâts causés aux biens et aux personnes.